SCP
-0 0 1 1 2 2 1 1 0 0 0 -0 -0 0 0 0 0 0 0 0 0 0 0 0 0 0 0 0 0 0 -0 -0 0 0 0 0 0 0
1 0 -0 0 2 2 1 1 0 0 0 -0 0 0 0 0 0 0 0 0 0 0 0 0 0 0 0 0 0 0 0 -0 0 0 0 0 0 0
0 0 0 0 1 1 1 1 0 0 0 -0 0 0 0 0 0 0 0 0 0 0 0 0 0 0 0 0 0 0 0 0 0 0 0 0 0 0
0 0 0 0 1 0 0 0 0 0 0 0 0 0 0 0 0 0 0 0 0 0 0 0 0 0 0 0 0 0 0 0 0 0 0 0 0 0
0 0 0 0 0 1 0 0 0 0 0 0 0 0 0 0 0 0 0 0 0 0 0 0 0 0 0 0 0 0 0 0 0 0 0 0 0 0
0 0 0 0 0 0 0 0 0 0 0 0 0 0 0 0 0 0 0 0 0 0 0 0 0 0 0 0 0 0 0 0 0 0 0 0 0 0
0 0 0 0 0 0 0 0 1 0 0 0 0 0 0 0 0 0 0 0 0 0 0 0 0 0 0 0 0 0 0 0 0 0 0 0 0 0
0 0 0 0 0 0 0 0 0 0 0 0 0 0 0 0 0 0 0 0 0 0 0 0 0 0 0 0 0 0 0 0 0 0 0 0 0 0
0 0 0 0 0 0 -0 0 0 0 0 0 0 0 0 0 0 0 0 0 0 0 0 0 0 0 0 0 0 0 0 0 0 0 0 0 0 0
-0 -0 -0 0 0 0 0 0 0 0 0 0 0 0 0 0 0 0 0 0 0 0 0 0 0 0 0 0 0 0 0 0 0 0 0 0 0 0
-0 -0 0 0 0 0 0 0 0 0 0 0 0 0 0 0 0 0 0 0 0 0 0 0 0 0 0 0 0 0 0 0 0 0 0 0 0 0
-0 -0 -0 0 0 0 0 0 0 0 0 0 0 0 0 0 0 0 0 0 0 0 0 0 0 0 0 0 0 0 0 0 0 0 0 0 0 0
-0 -0 0 0 0 0 0 0 0 0 0 0 0 0 0 0 0 0 0 0 0 0 0 0 0 0 0 0 0 0 0 0 0 0 0 0 0 0
0 0 0 0 0 0 0 0 0 0 0 0 0 0 0 0 0 0 0 0 0 0 0 0 0 0 0 0 0 0 0 0 0 0 0 0 0 0
0 0 0 0 0 0 0 0 0 0 0 0 0 0 0 0 0 0 0 0 0 -0 0 0 0 0 0 0 0 0 0 0 0 0 0 0 0 0
0 0 0 0 0 0 0 0 0 0 0 0 0 0 0 0 0 0 0 0 0 0 0 0 0 0 0 0 0 0 0 0 0 0 0 0 0 0
0 -0 -0 0 0 0 0 0 0 0 0 0 0 0 0 0 0 0 0 0 0 0 0 0 0 0 0 0 0 0 0 0 0 0 0 0 0 0
-0 -0 0 0 0 0 0 0 0 0 0 0 0 0 0 0 0 0 0 0 0 0 0 0 0 0 0 0 0 0 0 0 0 0 0 0 0 0
0 0 0 0 0 0 0 0 0 0 0 0 0 0 0 0 0 0 0 0 0 0 0 0 0 0 0 0 0 0 0 0 0 0 0 0 0 0
0 0 0 0 0 0 0 0 0 0 0 0 0 0 0 0 0 0 0 0 0 0 0 0 0 0 0 0 0 0 0 0 0 0 0 0 0 0
0 0 -0 0 0 0 0 0 0 0 0 0 0 0 0 0 0 0 0 0 0 0 0 0 0 0 0 0 0 0 0 0 0 0 0 0 0 0
0 0 0 0 0 0 0 0 0 0 0 0 0 0 0 0 0 0 0 0 0 0 0 0 0 0 0 0 0 0 0 0 0 0 0 0 0 0
0 0 0 0 0 0 0 0 0 0 0 0 0 0 0 0 0 0 0 0 0 -0 -0 -0 0 0 0 0 0 0 0 0 0 0 0 0 0 0
Wind_Speed_500mb
81 91 79 65 64 59 65 66 56 64 70 72 74 72 51 40 39 37 29 33 40 40 40 37 36 37 35 40 42 45 43 45 45 45 45 42 42 43
95 97 90 82 77 68 61 71 68 65 73 83 83 78 58 39 37 39 32 34 41 41 40 39 34 34 32 36 38 41 41 42 44 44 43 42 42 43
78 78 88 90 81 67 59 75 76 66 72 99 96 81 59 41 36 40 28 35 40 41 40 36 35 35 32 30 35 39 40 42 43 43 42 41 39 40
64 65 72 69 70 70 66 74 76 72 70 85 80 74 55 46 38 34 29 38 38 42 40 37 34 35 36 35 35 39 40 39 42 43 42 38 33 35
60 52 59 62 61 55 58 63 68 59 62 62 61 67 58 40 42 41 35 37 39 40 35 38 38 35 35 36 39 39 44 42 42 43 41 38 37 36
46 50 50 47 52 60 68 69 67 54 60 50 66 71 56 39 46 42 39 37 40 35 32 37 36 36 34 34 38 35 38 44 45 44 41 39 38 37
52 49 53 45 41 55 64 71 55 59 64 58 54 68 53 46 51 41 41 35 37 31 30 32 30 31 34 34 36 38 35 39 41 41 39 39 38 38
58 55 52 48 44 41 56 57 56 72 73 67 57 73 57 50 41 44 42 38 38 27 24 23 28 29 28 33 33 39 40 40 40 41 39 38 38 38
56 62 55 46 48 42 53 53 68 66 68 40 52 63 42 44 37 42 40 39 33 26 25 24 25 25 23 25 31 34 39 42 42 39 38 38 38 37
51 56 60 58 51 49 50 52 58 49 34 38 42 30 32 29 32 29 26 28 30 32 32 33 29 26 26 25 28 33 35 39 43 42 40 39 39 38
57 56 61 58 51 53 49 49 46 51 44 47 39 34 32 30 30 30 33 30 31 33 34 35 35 29 28 29 28 31 32 35 40 41 40 39 37 38
60 58 59 59 48 54 48 51 53 60 51 38 33 36 33 31 29 28 29 29 30 34 30 30 33 24 18 27 34 35 33 28 29 34 35 35 30 32
63 59 58 52 50 48 46 51 59 60 43 37 35 34 34 34 31 30 29 29 31 29 20 12 17 21 29 24 17 24 30 27 25 26 30 33 33 32
70 66 64 49 44 49 47 50 53 48 45 43 39 36 34 30 27 27 26 26 26 22 20 13 10 13 19 22 13 5 11 21 26 29 32 34 34 34
69 67 61 48 46 36 49 48 42 46 43 42 38 33 27 23 19 20 27 27 23 23 23 17 11 11 12 18 15 13 10 15 17 22 30 34 37 38
67 66 62 51 45 37 44 35 36 41 46 40 34 29 28 24 21 24 27 24 22 19 18 19 19 19 19 18 16 12 9 9 8 14 12 22 28 35
78 77 59 55 53 46 46 40 50 50 43 39 34 32 31 29 28 27 26 25 23 16 16 16 15 14 15 20 20 14 14 15 15 19 21 24 25 26
83 74 58 58 49 75 70 60 59 50 45 38 33 33 31 31 30 30 26 22 20 20 15 15 16 14 10 10 15 13 15 17 17 20 22 26 29 25
62 56 56 56 67 64 65 69 61 53 46 39 37 33 27 29 23 25 27 26 21 20 17 14 13 14 10 8 6 6 10 10 12 13 16 20 27 25
58 60 60 66 70 74 72 60 57 54 45 44 40 35 34 29 25 22 30 28 25 22 20 21 23 20 15 13 6 6 9 11 12 14 18 22 26 28
58 69 84 74 70 66 64 56 52 48 48 50 43 39 32 29 28 23 21 25 29 28 27 23 15 11 11 15 17 13 10 8 13 18 20 21 22 24
75 63 60 61 70 71 59 53 50 51 49 43 38 34 33 30 25 24 21 22 24 23 24 22 15 11 4 3 2 4 3 8 11 12 15 17 16 11
64 61 68 69 65 59 56 55 54 50 43 39 35 36 31 27 20 21 18 14 20 25 21 19 18 10 6 6 7 7 6 6 4 3 9 14 19 19
Wind_Direction_500mb
272 268 267 273 274 268 279 285 282 284 293 305 308 300 291 299 269 251 258 270 277 284 290 290 285 280 263 251 240 239 242 238 237 234 236 237 241 243
259 268 269 272 269 273 261 274 281 277 278 290 299 293 287 282 259 249 252 265 272 281 289 285 277 275 266 252 240 236 237 237 234 233 234 236 237 241
258 266 270 268 269 267 264 264 273 266 280 286 290 281 277 267 256 252 266 263 272 280 284 280 271 268 262 251 241 235 233 236 236 232 233 235 240 244
263 265 260 263 261 262 266 260 265 270 280 287 287 273 267 263 247 247 252 258 273 280 280 275 269 264 257 249 243 239 235 237 234 229 232 236 244 247
260 272 270 263 259 256 251 260 262 267 283 280 278 273 263 244 250 239 248 259 270 277 273 271 267 260 256 252 244 245 236 234 231 230 233 236 242 249
274 270 267 265 264 260 259 259 266 277 284 275 268 259 256 248 240 242 244 254 270 272 275 274 262 256 255 254 241 243 234 228 231 232 236 240 246 249
269 267 267 265 259 266 273 255 257 281 287 281 265 253 245 239 238 242 245 251 262 270 272 269 260 256 252 251 242 239 235 231 233 237 238 241 249 249
277 274 266 265 259 254 268 244 269 279 276 265 250 252 249 242 245 241 239 245 251 267 281 268 270 260 258 252 245 238 239 236 236 238 239 241 248 251
293 276 273 263 266 259 234 260 269 268 274 245 248 250 247 236 249 238 240 246 252 265 274 276 269 265 262 259 248 241 239 239 238 240 242 247 251 250
288 282 272 265 262 262 259 251 249 249 247 257 251 250 245 239 238 245 249 251 247 256 259 263 268 258 246 262 260 248 243 241 240 242 246 250 253 245
291 284 273 267 258 256 262 254 249 230 224 245 240 224 230 236 236 234 229 230 245 257 260 258 263 257 255 252 254 256 259 248 242 242 246 249 246 243
289 279 277 263 257 252 249 246 248 228 221 229 230 223 233 236 233 231 233 239 249 262 270 244 259 246 260 265 251 248 253 252 243 240 240 238 223 228
283 284 278 260 251 250 241 244 237 229 233 219 221 230 235 237 237 237 239 242 250 247 247 251 244 244 240 261 297 248 241 248 246 232 228 229 240 246
277 282 282 263 247 243 234 241 227 230 219 210 214 226 227 233 242 240 233 230 226 226 222 227 246 263 248 245 263 296 252 251 253 244 244 249 247 241
276 279 282 255 244 247 223 219 225 219 224 211 207 208 223 232 224 210 207 200 197 210 215 218 223 227 238 243 274 308 298 285 265 265 254 256 251 251
268 279 273 245 237 260 208 210 218 222 204 196 193 209 210 194 177 179 184 194 196 201 204 219 232 249 243 245 254 270 287 277 274 311 305 260 260 260
265 277 263 237 232 216 201 205 208 194 192 190 201 199 187 182 179 189 192 190 196 209 206 202 209 236 252 237 251 264 279 281 288 288 282 284 280 283
264 263 239 236 224 199 197 205 192 190 192 196 192 184 179 182 190 193 196 193 197 193 192 206 217 234 249 253 266 288 273 292 292 280 287 291 292 293
233 232 230 225 199 203 204 196 185 189 195 190 180 173 177 186 200 200 196 191 195 189 189 216 217 227 243 272 225 281 288 305 279 281 286 294 301 310
213 212 201 190 203 203 188 185 189 188 189 181 174 184 188 196 196 193 193 195 197 202 219 229 232 247 259 260 252 224 287 307 293 294 296 297 302 309
200 196 187 189 201 189 184 187 187 187 182 180 178 186 194 201 196 200 199 208 213 219 222 229 231 228 264 254 235 230 255 286 304 306 307 311 315 320
188 186 199 209 194 185 187 185 180 176 175 177 185 193 196 199 201 203 210 204 205 209 209 212 195 192 225 267 134 162 204 293 312 310 306 308 311 321
179 198 184 174 177 179 177 171 169 167 169 174 178 173 183 189 189 165 153 161 179 187 182 178 191 198 196 184 187 210 223 252 266 318 339 332 335 340
Wind_Speed_850mb
81 91 79 65 64 59 65 66 56 64 70 72 74 72 51 40 39 37 29 33 40 40 40 37 36 37 35 40 42 45 43 45 45 45 45 42 42 43
95 97 90 82 77 68 61 71 68 65 73 83 83 78 58 39 37 39 32 34 41 41 40 39 34 34 32 36 38 41 41 42 44 44 43 42 42 43
78 78 88 90 81 67 59 75 76 66 72 99 96 81 59 41 36 40 28 35 40 41 40 36 35 35 32 30 35 39 40 42 43 43 42 41 39 40
64 65 72 69 70 70 66 74 76 72 70 85 80 74 55 46 38 34 29 38 38 42 40 37 34 35 36 35 35 39 40 39 42 43 42 38 33 35
60 52 59 62 61 55 58 63 68 59 62 62 61 67 58 40 42 41 35 37 39 40 35 38 38 35 35 36 39 39 44 42 42 43 41 38 37 36
46 50 50 47 52 60 68 69 67 54 60 50 66 71 56 39 46 42 39 37 40 35 32 37 36 36 34 34 38 35 38 44 45 44 41 39 38 37
52 49 53 45 41 55 64 71 55 59 64 58 54 68 53 46 51 41 41 35 37 31 30 32 30 31 34 34 36 38 35 39 41 41 39 39 38 38
58 55 52 48 44 41 56 57 56 72 73 67 57 73 57 50 41 44 42 38 38 27 24 23 28 29 28 33 33 39 40 40 40 41 39 38 38 38
56 62 55 46 48 42 53 53 68 66 68 40 52 63 42 44 37 42 40 39 33 26 25 24 25 25 23 25 31 34 39 42 42 39 38 38 38 37
51 56 60 58 51 49 50 52 58 49 34 38 42 30 32 29 32 29 26 28 30 32 32 33 29 26 26 25 28 33 35 39 43 42 40 39 39 38
57 56 61 58 51 53 49 49 46 51 44 47 39 34 32 30 30 30 33 30 31 33 34 35 35 29 28 29 28 31 32 35 40 41 40 39 37 38
60 58 59 59 48 54 48 51 53 60 51 38 33 36 33 31 29 28 29 29 30 34 30 30 33 24 18 27 34 35 33 28 29 34 35 35 30 32
63 59 58 52 50 48 46 51 59 60 43 37 35 34 34 34 31 30 29 29 31 29 20 12 17 21 29 24 17 24 30 27 25 26 30 33 33 32
70 66 64 49 44 49 47 50 53 48 45 43 39 36 34 30 27 27 26 26 26 22 20 13 10 13 19 22 13 5 11 21 26 29 32 34 34 34
69 67 61 48 46 36 49 48 42 46 43 42 38 33 27 23 19 20 27 27 23 23 23 17 11 11 12 18 15 13 10 15 17 22 30 34 37 38
67 66 62 51 45 37 44 35 36 41 46 40 34 29 28 24 21 24 27 24 22 19 18 19 19 19 19 18 16 12 9 9 8 14 12 22 28 35
78 77 59 55 53 46 46 40 50 50 43 39 34 32 31 29 28 27 26 25 23 16 16 16 15 14 15 20 20 14 14 15 15 19 21 24 25 26
83 74 58 58 49 75 70 60 59 50 45 38 33 33 31 31 30 30 26 22 20 20 15 15 16 14 10 10 15 13 15 17 17 20 22 26 29 25
62 56 56 56 67 64 65 69 61 53 46 39 37 33 27 29 23 25 27 26 21 20 17 14 13 14 10 8 6 6 10 10 12 13 16 20 27 25
58 60 60 66 70 74 72 60 57 54 45 44 40 35 34 29 25 22 30 28 25 22 20 21 23 20 15 13 6 6 9 11 12 14 18 22 26 28
58 69 84 74 70 66 64 56 52 48 48 50 43 39 32 29 28 23 21 25 29 28 27 23 15 11 11 15 17 13 10 8 13 18 20 21 22 24
75 63 60 61 70 71 59 53 50 51 49 43 38 34 33 30 25 24 21 22 24 23 24 22 15 11 4 3 2 4 3 8 11 12 15 17 16 11
64 61 68 69 65 59 56 55 54 50 43 39 35 36 31 27 20 21 18 14 20 25 21 19 18 10 6 6 7 7 6 6 4 3 9 14 19 19
Wind_Direction_850mb
272 268 267 273 274 268 279 285 282 284 293 305 308 300 291 299 269 251 258 270 277 284 290 290 285 280 263 251 240 239 242 238 237 234 236 237 241 243
259 268 269 272 269 273 261 274 281 277 278 290 299 293 287 282 259 249 252 265 272 281 289 285 277 275 266 252 240 236 237 237 234 233 234 236 237 241
258 266 270 268 269 267 264 264 273 266 280 286 290 281 277 267 256 252 266 263 272 280 284 280 271 268 262 251 241 235 233 236 236 232 233 235 240 244
263 265 260 263 261 262 266 260 265 270 280 287 287 273 267 263 247 247 252 258 273 280 280 275 269 264 257 249 243 239 235 237 234 229 232 236 244 247
260 272 270 263 259 256 251 260 262 267 283 280 278 273 263 244 250 239 248 259 270 277 273 271 267 260 256 252 244 245 236 234 231 230 233 236 242 249
274 270 267 265 264 260 259 259 266 277 284 275 268 259 256 248 240 242 244 254 270 272 275 274 262 256 255 254 241 243 234 228 231 232 236 240 246 249
269 267 267 265 259 266 273 255 257 281 287 281 265 253 245 239 238 242 245 251 262 270 272 269 260 256 252 251 242 239 235 231 233 237 238 241 249 249
277 274 266 265 259 254 268 244 269 279 276 265 250 252 249 242 245 241 239 245 251 267 281 268 270 260 258 252 245 238 239 236 236 238 239 241 248 251
293 276 273 263 266 259 234 260 269 268 274 245 248 250 247 236 249 238 240 246 252 265 274 276 269 265 262 259 248 241 239 239 238 240 242 247 251 250
288 282 272 265 262 262 259 251 249 249 247 257 251 250 245 239 238 245 249 251 247 256 259 263 268 258 246 262 260 248 243 241 240 242 246 250 253 245
291 284 273 267 258 256 262 254 249 230 224 245 240 224 230 236 236 234 229 230 245 257 260 258 263 257 255 252 254 256 259 248 242 242 246 249 246 243
289 279 277 263 257 252 249 246 248 228 221 229 230 223 233 236 233 231 233 239 249 262 270 244 259 246 260 265 251 248 253 252 243 240 240 238 223 228
283 284 278 260 251 250 241 244 237 229 233 219 221 230 235 237 237 237 239 242 250 247 247 251 244 244 240 261 297 248 241 248 246 232 228 229 240 246
277 282 282 263 247 243 234 241 227 230 219 210 214 226 227 233 242 240 233 230 226 226 222 227 246 263 248 245 263 296 252 251 253 244 244 249 247 241
276 279 282 255 244 247 223 219 225 219 224 211 207 208 223 232 224 210 207 200 197 210 215 218 223 227 238 243 274 308 298 285 265 265 254 256 251 251
268 279 273 245 237 260 208 210 218 222 204 196 193 209 210 194 177 179 184 194 196 201 204 219 232 249 243 245 254 270 287 277 274 311 305 260 260 260
265 277 263 237 232 216 201 205 208 194 192 190 201 199 187 182 179 189 192 190 196 209 206 202 209 236 252 237 251 264 279 281 288 288 282 284 280 283
264 263 239 236 224 199 197 205 192 190 192 196 192 184 179 182 190 193 196 193 197 193 192 206 217 234 249 253 266 288 273 292 292 280 287 291 292 293
233 232 230 225 199 203 204 196 185 189 195 190 180 173 177 186 200 200 196 191 195 189 189 216 217 227 243 272 225 281 288 305 279 281 286 294 301 310
213 212 201 190 203 203 188 185 189 188 189 181 174 184 188 196 196 193 193 195 197 202 219 229 232 247 259 260 252 224 287 307 293 294 296 297 302 309
200 196 187 189 201 189 184 187 187 187 182 180 178 186 194 201 196 200 199 208 213 219 222 229 231 228 264 254 235 230 255 286 304 306 307 311 315 320
188 186 199 209 194 185 187 185 180 176 175 177 185 193 196 199 201 203 210 204 205 209 209 212 195 192 225 267 134 162 204 293 312 310 306 308 311 321
179 198 184 174 177 179 177 171 169 167 169 174 178 173 183 189 189 165 153 161 179 187 182 178 191 198 196 184 187 210 223 252 266 318 339 332 335 340